This demonstration page uses our WeatherBlox Daily Observations layout. Learn more.

Hourly Observations for April 8, 2019

Temp ( °F °C ) Dew Point ( °F °C ) Humidity (%) Winds ( mph kmh ) Pressure ( in mb ) Visibility ( mi km ) Precip ( " mm )
12:15 am 00:15 Cloudy 63 17 59 15 88 88 SSW 7 11 30.03 1017 10 16.09344 0 0
12:30 am 00:30 Cloudy 61 16 59 15 94 94 SSW 7 11 30.03 1017 10 16.09344 0 0
12:55 am 00:55 Cloudy 61 16 59 15 94 94 S 6 9 30.03 1017 7 11.265408 0 0
1:15 am 01:15 Mostly Cloudy 61 16 59 15 94 94 SSE 3 6 30 1016 10 16.09344 0 0
1:35 am 01:35 Partly Cloudy 61 16 59 15 94 94 S 6 9 30 1016 10 16.09344 0 0
1:55 am 01:55 Clear 59 15 59 15 100 100 S 3 6 29.97 1015 10 16.09344 0 0
2:15 am 02:15 Clear 59 15 59 15 100 100 S 3 6 29.97 1015 10 16.09344 0 0
2:35 am 02:35 Clear 59 15 59 15 100 100 S 5 7 29.97 1015 10 16.09344 0 0
2:55 am 02:55 Mostly Cloudy 59 15 59 15 100 100 Calm 29.97 1015 10 16.09344 0 0
3:15 am 03:15 Mostly Cloudy 59 15 59 15 100 100 S 3 6 29.94 1014 10 16.09344 0 0
3:35 am 03:35 Mostly Cloudy 55 13 55 13 100 100 Calm 29.94 1014 10 16.09344 0 0
3:55 am 03:55 Cloudy 57 14 57 14 100 100 Calm 29.94 1014 10 16.09344 0 0
4:15 am 04:15 Cloudy 59 15 59 15 100 100 Calm 29.94 1014 10 16.09344 0 0
4:35 am 04:35 Cloudy 59 15 59 15 100 100 SSW 3 6 29.94 1014 10 16.09344 0 0
4:55 am 04:55 Cloudy 59 15 59 15 100 100 Calm 29.94 1014 10 16.09344 0 0
5:15 am 05:15 Cloudy 59 15 59 15 100 100 SSW 5 7 29.94 1014 10 16.09344 0 0
5:35 am 05:35 Cloudy 59 15 59 15 100 100 Calm 29.91 1013 10 16.09344 0 0
5:55 am 05:55 Mostly Cloudy 57 14 57 14 100 100 SSW 6 9 29.91 1013 10 16.09344 0 0
6:15 am 06:15 Partly Cloudy 59 15 59 15 100 100 SSW 5 7 29.94 1014 10 16.09344 0 0
6:35 am 06:35 Clear 57 14 57 14 100 100 SSW 6 9 29.94 1014 10 16.09344 0 0
6:55 am 06:55 Sunny 55 13 55 13 100 100 SSW 5 7 29.94 1014 10 16.09344 0 0
7:15 am 07:15 Sunny 57 14 57 14 100 100 SSW 6 9 29.94 1014 10 16.09344 0 0
7:35 am 07:35 Sunny 59 15 59 15 100 100 SSW 6 9 29.94 1014 10 16.09344 0 0
7:55 am 07:55 Sunny 59 15 59 15 100 100 SSW 8 13 29.94 1014 10 16.09344 0 0
8:15 am 08:15 Sunny 61 16 59 15 94 94 SSW 5 7 29.94 1014 10 16.09344 0 0
8:35 am 08:35 Sunny 63 17 61 16 94 94 SSW 7 11 29.91 1013 10 16.09344 0 0
8:55 am 08:55 Sunny 63 17 61 16 94 94 SW 5 7 29.91 1013 10 16.09344 0 0
9:15 am 09:15 Sunny 64 18 61 16 88 88 SW 5 7 29.91 1013 10 16.09344 0 0
9:35 am 09:35 Sunny 68 20 63 17 83 83 SSW 9 15 29.91 1013 10 16.09344 0 0
9:55 am 09:55 Sunny 70 21 63 17 78 78 SSW 8 13 29.91 1013 10 16.09344 0 0
10:15 am 10:15 Sunny 72 22 61 16 69 69 WSW 12 19 29.88 1012 10 16.09344 0 0
10:35 am 10:35 Sunny 73 23 61 16 65 65 WSW 12 19 29.88 1012 10 16.09344 0 0
10:55 am 10:55 Sunny 75 24 61 16 61 61 SW 12 19 29.88 1012 10 16.09344 0 0
11:15 am 11:15 Sunny 73 23 61 16 65 65 W 8 13 29.88 1012 10 16.09344 0 0
11:35 am 11:35 Sunny 77 25 61 16 57 57 W 12 19 29.88 1012 10 16.09344 0 0
11:55 am 11:55 Sunny 77 25 61 16 57 57 WSW 10 17 29.88 1012 10 16.09344 0 0
12:15 pm 12:15 Sunny 79 26 61 16 54 54 WSW 8 13 29.85 1011 10 16.09344 0 0
12:35 pm 12:35 Partly Cloudy 81 27 61 16 51 51 W 10 17 29.85 1011 10 16.09344 0 0
12:55 pm 12:55 Partly Cloudy 81 27 59 15 48 48 W 16 26 29.85 1011 10 16.09344 0 0
1:15 pm 13:15 Sunny 81 27 59 15 48 48 W 16 26 29.83 1010 10 16.09344 0 0
1:35 pm 13:35 Sunny 79 26 59 15 51 51 W 9 15 29.83 1010 10 16.09344 0 0
1:55 pm 13:55 Sunny 79 26 59 15 51 51 WNW 16 26 29.83 1010 10 16.09344 0 0
2:15 pm 14:15 Sunny 81 27 59 15 48 48 WNW 15 24 29.83 1010 10 16.09344 0 0
2:35 pm 14:35 Sunny 79 26 59 15 51 51 W 15 24 29.83 1010 10 16.09344 0 0
2:55 pm 14:55 Sunny 79 26 59 15 51 51 W 12 19 29.83 1010 10 16.09344 0 0
3:15 pm 15:15 Sunny 81 27 59 15 48 48 WNW 16 26 29.83 1010 10 16.09344 0 0
3:35 pm 15:35 Partly Cloudy 79 26 59 15 51 51 WNW 12 19 29.8 1009 10 16.09344 0 0
3:55 pm 15:55 Mostly Cloudy 79 26 59 15 51 51 WNW 10 17 29.8 1009 10 16.09344 0 0
4:15 pm 16:15 Cloudy 77 25 59 15 54 54 W 3 6 29.8 1009 10 16.09344 0 0
4:35 pm 16:35 Cloudy 77 25 59 15 54 54 W 7 11 29.8 1009 10 16.09344 0 0
4:55 pm 16:55 Cloudy 77 25 59 15 54 54 W 9 15 29.8 1009 10 16.09344 0 0
5:15 pm 17:15 Cloudy 77 25 61 16 57 57 W 7 11 29.8 1009 10 16.09344 0 0
5:35 pm 17:35 Cloudy 75 24 59 15 57 57 W 9 15 29.8 1009 10 16.09344 0 0
5:55 pm 17:55 Cloudy 73 23 59 15 61 61 W 6 9 29.8 1009 10 16.09344 0 0
6:15 pm 18:15 Cloudy 73 23 59 15 61 61 WNW 7 11 29.83 1010 10 16.09344 0 0
6:35 pm 18:35 Cloudy 72 22 59 15 65 65 NW 9 15 29.8 1009 10 16.09344 0 0
6:55 pm 18:55 Cloudy 70 21 59 15 69 69 WNW 7 11 29.83 1010 10 16.09344 0 0
7:15 pm 19:15 Cloudy 70 21 59 15 69 69 WNW 8 13 29.83 1010 10 16.09344 0 0
7:35 pm 19:35 Cloudy 68 20 59 15 73 73 NW 6 9 29.8 1009 10 16.09344 0 0
7:55 pm 19:55 Cloudy 68 20 59 15 73 73 N 3 6 29.8 1009 10 16.09344 0 0
8:15 pm 20:15 Cloudy 68 20 61 16 78 78 Calm 29.8 1009 10 16.09344 0 0
8:35 pm 20:35 Cloudy 66 19 61 16 83 83 Calm 29.8 1009 10 16.09344 0 0
8:55 pm 20:55 Cloudy 66 19 61 16 83 83 SSW 3 6 29.8 1009 10 16.09344 0 0
9:15 pm 21:15 Cloudy 66 19 61 16 83 83 Calm 29.8 1009 10 16.09344 0 0
9:35 pm 21:35 Cloudy 64 18 61 16 88 88 NW 7 11 29.8 1009 10 16.09344 0 0
9:55 pm 21:55 Cloudy 66 19 59 15 78 78 NW 7 11 29.8 1009 10 16.09344 0 0
10:15 pm 22:15 Cloudy 66 19 59 15 78 78 W 5 7 29.8 1009 10 16.09344 0 0
10:35 pm 22:35 Cloudy 64 18 61 16 88 88 SSW 5 7 29.8 1009 10 16.09344 0 0
10:55 pm 22:55 Cloudy 64 18 59 15 83 83 WSW 6 9 29.83 1010 10 16.09344 0 0
11:15 pm 23:15 Cloudy 66 19 59 15 78 78 WSW 3 6 29.8 1009 10 16.09344 0 0
11:35 pm 23:35 Cloudy 64 18 59 15 83 83 SW 3 6 29.8 1009 10 16.09344 0 0
11:55 pm 23:55 Cloudy 64 18 59 15 83 83 Calm 29.8 1009 10 16.09344 0 0

Powered by AerisWeather